RH
9 10 7 7 7 6 6 6 7 7 6 6 6 5 5 4 2 2 1 1 4 15 10 23 31 30 32 31 32 30 40 53 38 35 23 22 21 18 18 17 17 16 15 16 23
25 19 19 11 6 6 7 6 6 6 6 6 6 6 4 4 3 1 11 19 22 23 18 16 22 25 33 37 36 40 53 39 33 27 26 22 22 22 21 20 19 18 15 16 15
58 45 31 22 12 8 6 7 6 5 6 6 5 5 5 3 4 15 25 25 23 24 21 24 26 27 36 45 43 44 42 33 30 24 22 26 28 23 21 25 19 18 14 15 16
52 50 38 25 21 13 9 8 7 6 5 6 6 6 5 5 6 24 23 25 24 23 24 23 23 24 32 41 40 50 44 33 27 24 27 29 25 26 23 23 19 19 17 17 15
54 54 49 43 31 20 11 8 6 6 6 6 7 8 10 23 6 2 25 22 24 27 24 35 42 26 25 24 27 44 43 37 32 31 30 28 31 29 26 23 20 20 19 17 15
84 69 54 43 37 33 14 9 6 6 7 6 8 11 33 69 6 6 4 14 22 25 24 35 44 37 26 27 27 25 28 29 28 28 28 31 30 29 26 23 22 20 18 17 15
86 76 59 50 39 28 15 9 6 6 8 8 17 33 54 12 4 6 5 16 14 21 28 23 26 20 20 21 22 28 44 40 37 32 33 27 33 33 24 22 21 19 18 15 14
73 81 65 50 37 30 15 9 7 16 19 32 49 62 61 4 5 4 12 10 9 20 26 25 26 28 26 22 25 38 39 48 33 34 30 28 33 25 21 21 20 19 17 15 14
55 52 73 52 38 29 16 11 16 41 58 51 50 63 54 21 29 25 32 29 21 16 16 26 28 29 23 33 35 45 50 49 41 29 30 33 35 25 20 21 20 18 18 19 18
60 56 65 60 38 30 19 17 21 66 68 72 93 93 32 33 49 41 32 30 31 36 34 33 31 34 43 39 46 49 52 52 50 37 40 43 41 33 28 27 27 24 22 20 19
59 50 54 48 37 39 38 47 44 55 50 69 71 93 58 47 42 46 33 35 24 38 47 33 41 51 41 45 34 42 50 53 44 38 42 37 36 33 31 30 30 26 23 22 20
58 50 62 42 43 42 53 80 86 91 97 73 61 48 26 22 55 28 38 38 39 56 48 55 56 40 34 35 36 39 44 46 43 37 39 46 45 36 34 33 28 28 24 21 22
49 54 63 44 40 44 46 81 70 81 98 76 50 62 58 51 65 44 36 34 39 55 60 64 55 50 46 48 48 49 57 60 62 54 44 49 48 36 29 28 24 24 23 23 25
78 70 62 40 39 51 57 53 65 78 96 67 57 49 48 50 65 30 33 33 35 53 57 63 52 58 55 53 51 76 58 61 62 64 72 55 79 39 38 40 38 34 28 25 22
73 74 63 56 62 63 64 49 64 79 90 22 36 43 47 49 35 38 38 32 39 54 57 58 74 75 73 67 63 70 63 69 69 73 70 66 78 54 40 40 40 36 29 23 22
54 62 65 62 60 66 65 49 63 82 73 41 30 34 41 44 44 37 33 29 33 65 60 50 54 57 53 58 60 58 63 64 60 61 88 62 64 63 50 42 36 32 26 22 19
50 53 57 66 69 64 66 56 84 95 36 29 49 42 42 40 43 36 46 62 66 74 75 60 65 58 60 62 63 65 78 89 92 91 87 53 66 57 41 35 32 33 28 24 21
55 51 44 49 60 63 75 88 88 34 48 40 45 47 59 74 54 40 50 58 52 55 78 77 62 65 64 60 67 83 81 77 93 91 85 66 66 51 66 58 59 56 47 37 28
62 52 48 54 63 65 72 83 59 59 55 57 50 74 68 73 91 52 47 51 50 55 53 71 65 60 64 61 61 79 91 73 94 83 93 79 65 55 66 70 66 64 59 58 50
74 57 58 69 78 92 92 74 67 54 50 54 67 76 87 81 91 78 61 63 60 54 46 62 71 60 68 61 62 68 84 99 99 99 96 74 74 79 84 76 72 74 68 74 65
78 67 70 82 87 89 98 79 63 49 52 60 68 70 70 80 92 93 67 85 65 64 60 63 60 69 70 79 86 89 90 96 96 99 98 98 83 75 77 72 69 70 76 88 60
82 98 81 92 97 98 100 69 60 62 56 56 63 64 66 76 77 95 99 92 80 71 86 82 75 86 73 56 67 70 77 71 100 95 95 95 85 75 75 66 59 62 79 95 71
87 86 76 87 100 100 86 74 67 74 63 59 59 50 87 70 87 90 100 86 81 78 85 77 78 75 46 64 84 91 83 94 97 99 97 99 77 64 56 58 59 64 86 97 98
90 92 75 99 96 91 92 78 74 69 72 63 62 61 63 66 68 82 93 90 73 73 70 60 83 64 62 63 82 95 73 70 82 98 85 86 82 53 69 72 67 81 89 99 100
88 93 91 98 89 96 91 95 85 82 60 56 63 67 65 82 86 90 97 94 77 74 80 67 79 85 78 75 75 75 78 74 81 72 82 63 68 60 62 78 85 88 89 99 100
92 96 97 98 86 94 87 85 87 87 96 78 77 62 62 94 76 96 90 64 71 76 83 87 91 90 88 67 62 76 60 55 57 58 68 67 73 54 55 89 89 88 91 98 100
93 96 98 84 87 93 89 86 94 97 81 84 74 92 93 78 63 65 71 70 68 80 88 86 94 96 94 67 79 69 67 72 68 67 67 81 64 66 79 87 94 96 96 99 100
Wind_Speed
15 17 17 18 19 20 22 22 23 23 23 24 25 26 27 26 26 26 27 19 14 14 20 15 9 9 11 10 9 7 1 4 8 8 9 4 3 5 4 13 8 7 12 18 18
16 17 19 20 20 21 23 24 24 24 25 26 26 28 28 29 29 28 5 6 11 12 24 17 12 9 6 5 8 5 5 9 7 8 7 2 2 9 4 9 18 23 14 11 24
19 19 20 22 22 22 22 23 23 24 25 26 27 28 29 28 26 4 8 6 7 7 15 13 9 10 7 7 8 6 7 6 6 17 11 11 9 20 5 7 22 23 26 27 25
20 21 22 24 25 26 25 24 24 24 24 25 26 27 29 24 6 4 8 7 8 8 9 9 8 6 5 6 12 5 7 16 3 14 7 8 13 11 16 18 35 33 31 29 28
18 20 23 25 27 27 27 26 26 25 24 24 24 25 26 13 21 15 14 13 8 10 10 10 10 7 5 4 5 6 4 9 14 16 18 21 19 24 12 26 35 33 31 27 27
19 21 24 27 28 29 28 27 26 25 23 23 22 23 18 7 9 7 19 22 15 10 13 13 6 10 4 5 4 3 4 12 15 23 23 15 22 12 12 24 28 31 29 27 28
19 22 24 26 29 30 31 27 26 26 25 24 23 22 22 37 22 21 16 13 20 15 16 15 11 7 2 3 8 8 7 7 6 8 8 14 17 15 24 30 27 27 29 27 26
20 22 26 27 29 29 31 28 26 26 24 20 19 17 16 23 22 24 17 22 20 19 17 14 12 10 5 7 6 4 3 2 4 4 7 11 32 7 19 23 30 29 27 26 24
22 22 23 26 30 30 31 26 22 21 19 14 11 10 15 11 13 8 7 8 10 22 17 14 13 10 5 3 4 2 6 4 6 4 5 8 18 2 8 9 13 17 19 22 23
21 21 23 26 30 30 28 25 18 14 13 9 5 7 12 7 7 4 7 5 5 11 12 9 7 4 3 4 7 6 5 3 3 4 6 10 22 9 17 19 19 27 25 23 29
20 23 24 26 28 25 25 22 13 5 21 11 19 21 36 22 19 6 5 4 5 7 5 5 4 7 9 5 2 3 4 7 4 5 9 17 25 24 12 13 14 23 23 29 32
21 23 24 26 24 17 16 8 12 15 18 30 33 39 42 41 24 38 16 5 6 5 4 1 8 7 7 5 5 5 7 8 7 5 6 10 21 20 10 14 22 22 29 29 31
19 18 21 24 18 17 13 4 17 22 8 18 23 19 18 16 24 35 16 9 5 7 7 6 4 5 7 5 5 5 5 4 8 8 9 9 22 15 14 17 24 26 28 29 29
16 16 19 22 9 20 8 14 13 15 5 8 5 6 6 8 8 34 28 19 6 10 6 7 5 6 4 4 7 3 5 4 7 7 2 4 9 17 8 12 10 13 21 29 31
14 15 16 17 17 18 17 17 9 5 6 4 4 5 3 6 18 7 27 22 12 7 6 5 5 4 3 5 6 5 2 3 4 4 6 7 4 7 6 14 12 11 24 24 24
14 15 16 14 15 13 17 14 7 1 8 7 3 11 9 8 7 5 11 8 10 5 1 5 1 4 6 3 5 3 1 4 4 2 5 10 11 4 4 6 6 7 16 20 13
14 14 14 16 15 16 15 9 2 4 8 6 9 13 14 11 4 6 5 4 5 5 5 2 4 3 3 1 1 2 2 2 3 3 5 6 7 12 19 20 14 11 15 19 14
14 15 14 16 16 12 9 3 4 3 6 12 13 17 6 15 8 4 7 4 1 5 4 6 2 7 4 4 3 4 4 2 4 3 4 5 5 5 7 13 21 24 23 17 15
16 16 16 14 7 5 3 3 3 2 9 11 15 5 5 9 9 7 5 7 7 7 4 4 1 2 2 3 5 3 4 2 4 3 5 4 7 4 14 17 19 22 31 29 26
15 16 9 9 5 6 3 5 4 6 12 8 4 6 6 13 9 12 3 2 4 6 2 4 4 2 1 3 1 3 3 1 3 3 4 4 4 3 10 16 19 24 23 35 34
12 8 6 8 2 3 2 4 3 14 14 5 6 8 7 8 9 7 2 4 3 2 5 3 3 1 1 3 5 2 1 2 1 3 2 3 4 4 2 5 15 20 30 35 20
6 2 4 5 1 2 2 2 2 7 9 5 5 9 12 1 7 7 5 5 9 2 4 1 4 2 6 2 3 1 4 4 3 2 4 2 5 3 6 3 10 19 34 37 3
3 5 6 7 0 2 3 7 8 5 6 4 4 7 2 6 6 7 5 2 6 3 4 4 2 1 2 2 3 2 2 3 2 4 5 4 4 4 13 13 10 19 28 30 16
1 2 3 1 2 2 4 7 6 10 14 14 9 10 12 6 9 9 14 7 2 3 7 3 2 3 3 2 2 3 3 5 5 3 5 8 13 15 11 12 12 22 19 19 18
2 2 2 3 3 3 4 3 11 10 13 10 5 16 13 5 5 4 6 5 6 4 3 3 3 1 3 5 2 6 9 11 10 13 9 16 14 16 11 10 5 20 16 17 19
3 1 2 7 12 5 4 3 12 9 4 6 12 9 10 8 6 3 6 3 2 3 2 2 3 3 3 4 2 4 15 14 12 14 15 19 22 17 13 4 7 18 16 18 19
6 8 5 6 4 1 3 3 10 13 13 21 9 4 5 9 20 17 14 5 3 3 1 2 3 2 3 4 6 5 5 4 6 8 14 13 17 4 4 3 8 15 17 16 17
Wind_Direction
321 322 320 320 321 319 316 316 315 314 312 311 311 312 314 310 303 302 296 295 269 245 218 216 194 183 188 195 192 174 156 207 187 183 242 175 155 198 222 285 294 281 294 304 322
334 332 332 328 324 324 323 322 320 317 315 314 314 314 315 315 315 310 274 220 223 227 203 206 214 207 192 206 189 166 204 207 207 215 237 253 202 276 287 290 291 289 294 308 326
334 335 335 334 331 327 325 323 321 317 317 315 315 314 315 320 322 173 146 143 168 153 175 200 210 206 208 197 192 213 237 197 224 236 245 270 260 271 236 286 269 278 291 306 312
329 331 333 334 334 330 327 323 321 320 316 313 313 311 311 319 301 201 203 191 171 189 200 209 208 189 203 199 214 244 235 239 225 247 233 238 263 247 236 253 279 282 291 297 300
337 337 337 336 335 332 328 325 322 319 315 310 309 307 314 303 270 263 240 220 208 213 219 207 190 184 186 212 232 224 258 257 257 257 257 267 256 262 256 268 278 285 287 292 290
335 337 335 336 336 333 328 325 319 316 312 305 303 300 302 279 289 264 245 237 239 226 214 205 209 217 237 231 200 262 283 270 267 255 254 250 262 252 264 271 272 282 286 288 280
331 331 333 334 334 332 327 326 320 314 304 298 293 286 275 265 280 271 251 239 225 227 222 217 219 210 175 311 271 280 292 280 221 220 240 262 265 252 258 269 268 272 279 279 275
323 323 325 328 329 331 326 325 323 312 310 305 294 268 259 292 282 271 257 254 235 218 223 228 219 242 211 268 328 315 283 308 300 185 247 185 268 267 274 266 267 269 270 277 282
330 329 324 325 328 333 328 327 327 313 313 313 289 240 269 292 295 281 270 246 239 220 221 232 236 216 169 114 341 314 254 247 306 241 263 190 281 194 274 279 265 273 275 286 290
339 339 332 330 331 339 333 333 324 298 308 319 328 269 263 287 306 258 302 208 198 184 199 196 199 153 109 145 230 209 248 242 245 318 338 298 283 281 274 273 276 278 281 282 290
336 340 338 337 339 344 348 359 5 309 318 282 272 264 281 286 297 268 222 279 227 197 174 186 175 208 203 191 201 305 272 260 270 286 283 277 281 281 273 266 269 273 278 284 284
330 335 339 342 346 353 359 53 27 324 298 294 287 275 267 268 270 265 261 248 192 190 156 134 239 210 202 199 213 240 267 281 283 244 294 269 276 282 265 258 260 259 268 274 282
326 334 340 346 353 358 355 325 340 335 267 299 269 261 261 250 230 249 213 205 199 189 184 186 211 165 179 203 205 220 227 249 272 293 252 280 283 270 254 250 251 255 260 269 270
336 339 341 345 356 352 12 324 327 331 291 281 262 274 223 231 250 238 223 192 202 193 178 230 221 201 178 193 173 229 220 253 300 315 258 71 293 296 256 254 252 247 261 270 273
331 334 341 342 332 343 333 338 324 324 313 292 299 331 282 202 306 351 203 195 186 162 162 229 177 164 177 213 162 221 35 275 271 255 302 190 240 299 352 287 252 238 241 255 265
323 319 328 328 328 342 331 327 324 358 250 296 330 356 328 254 281 58 171 212 163 123 101 191 197 179 193 171 174 125 257 267 201 249 260 192 195 319 255 279 298 243 245 260 263
323 319 320 314 322 328 329 344 55 221 333 311 339 331 311 305 276 150 168 185 147 122 190 157 200 168 147 125 152 126 98 345 11 194 249 291 202 249 279 280 283 297 290 288 277
330 326 319 309 311 314 333 42 226 316 263 332 338 321 7 14 329 200 146 177 117 100 117 174 210 167 182 186 153 164 171 180 226 222 291 289 238 261 15 16 9 353 340 319 266
329 331 327 339 328 257 112 211 240 339 1 330 321 328 332 7 338 321 200 193 191 176 129 134 348 110 187 134 146 155 188 169 309 249 273 242 278 261 4 7 4 356 343 332 317
336 335 353 2 348 160 102 230 284 336 347 328 288 6 332 340 344 339 317 308 170 190 125 177 102 3 99 121 287 129 87 149 179 253 248 259 261 302 5 8 4 360 343 327 313
337 336 2 347 124 183 214 233 288 296 327 314 331 319 316 329 331 307 347 291 347 85 97 110 86 254 37 209 169 135 192 208 298 240 265 297 264 173 246 39 16 356 344 335 310
345 352 332 354 30 220 213 268 254 292 315 292 272 272 274 328 290 300 310 316 352 329 82 26 115 182 233 250 173 126 180 204 245 239 232 259 268 15 282 295 47 6 353 350 9
335 299 288 296 150 300 277 262 261 263 250 253 268 310 289 343 341 275 295 266 2 48 146 183 143 66 51 65 48 29 59 349 2 276 245 282 262 347 352 340 9 31 358 358 24
347 324 310 151 274 183 297 282 258 250 262 256 256 263 284 291 204 275 296 297 156 72 103 143 98 136 178 181 147 296 272 279 246 250 295 256 289 307 339 331 353 34 10 7 28
199 242 277 298 300 243 317 280 286 278 238 231 267 230 242 239 219 275 292 291 45 25 36 81 110 142 272 280 222 252 267 263 241 250 255 279 282 287 313 304 1 54 21 18 32
179 206 324 279 282 263 248 253 285 297 263 260 222 243 232 238 221 228 282 331 334 354 60 342 120 125 285 263 296 272 278 284 264 262 253 259 274 276 264 250 47 62 40 20 30
213 248 263 265 290 331 246 283 286 295 294 239 246 208 253 252 234 237 245 269 271 163 138 76 108 113 261 341 330 290 223 236 267 278 289 266 265 256 260 249 99 77 64 27 34